User: anonymous   Login
Location: NJAA Observatory
(40.6819°N, 74.8979°W)
Time: 18:31:22
(UTC-04:00)
Language:

Cosmos 1328 Rocket - Orbit

View from above orbital plane
View from above orbital plane
View from above satellite
View from above satellite

Ground track
Ground track

The orbit data is extracted from the following two-line orbital elements,

1 12988U 81117B   16127.42315098  .00000155  00000-0  15384-4 0  9991
2 12988  82.5236  94.8666 0019645 109.7194   7.7507 14.84578143859464
Epoch (UTC): 06 May 2016 10:09:20
Eccentricity: 0.0019645
inclination: 82.5236°
perigee height: 601 km
apogee height: 628 km
right ascension of ascending node: 94.8666°
argument of perigee: 109.7194°
revolutions per day: 14.84578143
mean anomaly at epoch: 7.7507°
orbit number at epoch: 85946

The dashed part of the orbit path shows where the satellite is in the earth's shadow,  

DLR